Temp
52 52 52 52 52 52 52 52 53 53 53 54 54 54 55 55 54 52 51 57 51 47 51 58 62 56 57 57 51 57 56 56 60 54 54 55 54 58 58 60 59 55 53 52 54 51 49 73 76 65 62 65 65 69
52 52 52 52 52 52 52 52 52 53 53 53 54 54 54 54 54 53 50 58 57 47 49 57 58 61 62 63 55 57 51 53 55 55 56 57 56 55 55 49 61 51 52 51 54 52 59 64 67 70 70 65 64 63
52 52 52 52 52 52 52 52 52 52 53 53 53 54 53 53 53 52 49 52 52 48 52 54 57 66 69 69 72 54 53 56 55 56 57 58 53 55 48 50 54 55 60 54 56 58 59 62 64 64 68 69 69 69
52 52 51 51 52 52 52 52 52 52 53 53 53 53 54 53 52 52 48 54 52 48 45 57 72 67 74 74 73 71 65 61 62 59 54 56 55 60 55 55 53 58 58 55 59 59 60 62 62 63 63 68 71 71
51 51 51 51 51 52 52 52 52 52 52 53 53 53 53 53 52 52 53 55 56 46 42 48 58 67 72 69 69 68 65 61 61 57 57 53 60 58 59 59 55 57 56 55 51 59 56 57 60 63 61 65 66 66
51 51 51 51 51 52 52 52 52 52 52 52 52 52 52 52 52 50 50 58 59 55 46 43 61 64 69 68 66 63 63 61 61 58 58 61 64 57 52 51 59 63 62 61 57 61 61 61 61 64 63 66 67 66
51 51 51 51 51 52 52 52 52 52 52 52 52 52 52 52 51 50 48 53 54 57 46 43 51 65 69 66 64 62 63 61 61 59 57 58 59 59 54 49 61 62 63 63 62 59 59 62 59 64 67 69 68 67
51 51 50 51 51 51 51 51 51 51 52 52 51 51 52 52 50 51 58 54 54 52 49 42 50 55 63 60 58 63 59 61 58 58 59 57 58 57 49 57 61 64 65 63 62 63 61 59 61 64 66 66 63 61
50 50 50 50 51 51 51 51 51 51 51 51 51 52 53 52 52 55 57 57 57 52 43 48 47 44 64 61 60 61 60 54 62 56 57 58 54 49 54 57 60 62 60 63 64 64 63 59 58 61 62 62 61 59
50 50 51 50 51 51 51 51 51 51 50 51 51 50 45 54 57 57 53 48 48 50 51 47 56 51 60 57 54 52 58 54 50 57 62 56 54 59 61 62 61 64 64 66 61 58 57 56 57 59 59 63 61 61
50 50 51 51 51 51 51 51 51 50 54 54 51 47 56 57 57 52 45 44 48 45 52 54 55 52 61 51 50 55 49 53 47 53 53 51 52 57 63 62 63 64 65 66 65 64 64 61 60 60 60 62 62 62
50 50 50 51 51 50 50 50 50 52 52 47 46 51 55 55 50 45 44 49 49 46 53 51 52 55 56 58 51 51 49 51 46 58 54 49 55 59 63 64 64 65 66 66 67 63 69 62 63 62 63 63 62 63
50 50 50 51 50 50 50 50 50 50 51 54 48 48 50 48 36 41 41 46 46 52 53 52 50 53 54 55 50 48 46 46 58 50 51 49 52 58 58 63 66 68 68 67 67 67 65 66 64 62 62 60 62 60
50 50 50 50 50 50 50 51 51 51 49 48 45 33 40 41 46 50 48 48 52 54 54 54 52 50 52 48 50 45 50 51 45 45 46 49 53 56 58 61 63 62 67 68 66 66 69 64 65 63 63 63 61 58
50 50 50 50 50 50 51 51 51 52 50 49 52 37 45 53 56 57 58 56 58 56 56 54 54 51 49 47 48 48 46 45 45 42 46 51 54 54 55 57 58 56 63 65 65 68 64 63 62 61 60 61 60 60
50 50 50 51 52 52 52 52 53 54 52 53 51 49 55 54 54 56 56 54 58 56 57 53 47 43 44 46 45 45 46 41 42 47 50 53 54 55 56 59 56 53 54 60 60 59 59 57 57 56 58 58 59 59
50 51 53 52 51 52 51 49 54 51 51 49 50 58 57 58 54 54 56 56 60 55 47 47 39 38 44 42 45 47 42 45 50 51 53 54 54 55 56 58 59 57 57 56 56 56 56 56 56 54 51 53 54 54
50 53 52 52 52 53 54 52 53 52 46 51 49 55 59 59 56 53 54 54 52 51 50 45 44 40 40 41 44 45 48 52 54 53 53 54 55 56 57 55 56 56 55 55 55 56 56 54 51 50 51 51 51 52
53 53 52 52 52 49 52 54 56 47 51 55 58 60 60 57 56 55 54 55 54 52 48 45 41 41 43 46 45 47 49 49 48 50 52 53 55 55 54 54 53 53 53 54 54 52 52 51 50 51 51 51 50 51
51 51 51 51 51 49 49 50 58 50 48 54 57 54 54 50 50 49 46 47 46 45 41 41 43 44 44 46 48 48 48 48 48 47 49 51 51 52 51 51 50 51 50 50 50 49 50 50 51 52 52 51 51 51
49 52 51 52 54 52 52 52 52 54 54 52 52 48 46 43 42 43 45 48 45 43 42 45 45 46 49 49 49 48 49 51 51 51 49 48 50 50 50 50 51 50 50 50 50 49 50 50 51 52 52 52 53 54
54 52 54 54 51 53 50 55 52 54 51 50 44 41 39 39 41 43 45 43 43 42 45 45 47 47 46 47 48 50 52 53 52 50 49 49 49 49 49 50 51 50 51 51 51 50 50 51 53 53 53 54 52 55
52 54 53 55 48 40 40 56 46 44 39 38 39 37 39 41 43 46 39 40 41 45 46 47 48 49 48 49 51 51 52 53 51 51 51 50 51 51 52 52 53 51 49 49 52 52 50 48 50 53 54 54 54 56
50 51 48 46 45 39 49 42 43 39 37 36 36 37 39 41 43 37 34 37 41 46 46 46 47 48 49 50 49 49 50 52 50 51 51 50 48 48 50 51 52 52 52 54 54 52 52 52 50 52 53 55 56 56
41 39 42 32 45 41 38 36 36 36 34 37 37 38 39 42 35 34 33 36 41 44 45 47 48 48 48 48 49 50 52 51 50 49 50 51 50 50 50 50 51 51 54 54 52 52 52 52 52 54 56 56 56 55
34 42 37 40 38 35 36 34 34 36 37 40 41 43 43 38 35 33 35 39 42 45 47 48 48 48 48 49 49 49 50 53 54 50 50 53 53 51 50 50 49 50 54 55 55 54 54 56 57 58 57 54 49 57
34 37 41 43 40 38 36 37 38 37 39 41 43 42 38 34 33 38 43 45 45 49 54 57 57 59 54 52 52 52 53 56 56 54 55 57 58 59 58 57 55 56 58 61 60 59 58 58 58 59 58 59 58 58
37 36 34 37 37 38 36 39 42 44 46 51 48 39 37 38 38 44 47 51 53 56 58 64 67 67 65 63 64 63 62 61 59 59 62 62 63 64 62 62 60 48 55 58 61 61 61 60 60 60 60 59 58 59
35 38 37 37 42 41 45 45 45 49 55 52 46 46 46 52 55 54 58 61 65 67 65 66 66 68 68 67 66 68 68 66 61 57 56 56 58 60 64 63 63 62 60 57 45 52 58 59 60 60 61 60 61 60
45 46 45 48 45 43 50 54 53 57 59 58 59 57 57 58 61 64 63 64 64 67 68 68 67 67 65 65 64 65 68 68 67 64 59 59 61 66 65 64 63 64 63 62 61 59 48 55 55 57 58 59 59 58
50 56 52 51 50 55 59 62 63 63 63 61 62 59 58 62 66 68 68 68 70 70 68 67 67 68 66 65 64 63 62 66 66 66 67 67 67 65 65 64 65 64 64 64 64 63 63 60 61 61 60 59 58 55
54 53 52 48 51 58 62 59 59 58 59 59 57 61 61 59 57 64 69 69 68 66 61 67 67 66 68 68 66 65 56 66 65 64 64 64 64 64 67 67 67 66 65 65 65 61 60 58 57 57 55 54 54 52
57 57 57 53 53 55 57 58 55 56 58 57 58 61 60 58 55 63 70 72 69 68 68 69 70 71 68 69 68 65 62 65 56 47 47 48 46 49 63 64 63 64 64 64 63 62 60 58 56 54 52 51 50 48
MSLP
1025.56 1025.41 1025.25 1025.11 1024.88 1024.68 1024.43 1024.10 1023.71 1023.33 1022.98 1022.61 1022.25 1021.94 1021.56 1021.26 1020.98 1020.69 1019.63 1018.95 1018.90 1017.64 1014.92 1013.44 1012.78 1012.46 1011.56 1010.68 1010.15 1009.26 1008.43 1008.04 1006.30 1005.97 1005.72 1005.23 1004.53 1003.79 1003.58 1003.35 1003.38 1003.72 1004.34 1004.37 1004.32 1004.20 1003.73 1002.13 1000.88 1001.58 1003.17 1003.67 1003.29 1003.96
1025.28 1025.03 1024.86 1024.79 1024.60 1024.39 1024.14 1023.89 1023.52 1023.15 1022.79 1022.47 1022.16 1021.91 1021.62 1021.31 1021.04 1020.87 1019.77 1018.86 1018.96 1018.69 1015.61 1014.08 1013.23 1012.30 1011.82 1011.00 1011.01 1010.27 1010.99 1010.49 1009.59 1008.44 1007.04 1005.93 1005.25 1004.99 1004.64 1004.63 1004.39 1005.04 1005.67 1005.70 1005.34 1005.20 1005.19 1004.41 1003.81 1003.56 1003.87 1004.02 1004.89 1005.05
1024.97 1024.85 1024.68 1024.51 1024.29 1024.09 1023.87 1023.56 1023.20 1022.90 1022.60 1022.34 1022.03 1021.70 1021.45 1021.24 1021.06 1021.05 1020.49 1019.66 1019.04 1017.84 1014.65 1013.00 1011.01 1009.61 1010.12 1010.06 1010.11 1010.52 1010.82 1010.89 1010.36 1010.78 1009.27 1007.05 1006.50 1006.40 1006.23 1006.50 1006.02 1006.29 1005.80 1006.20 1005.86 1006.26 1005.81 1005.69 1005.48 1005.36 1005.58 1005.69 1005.55 1006.10
1024.72 1024.62 1024.47 1024.26 1024.02 1023.81 1023.55 1023.22 1022.90 1022.57 1022.30 1022.06 1021.79 1021.49 1021.20 1021.06 1020.94 1020.85 1020.42 1019.35 1019.10 1018.30 1015.59 1011.00 1009.19 1008.98 1008.77 1008.73 1009.13 1009.31 1009.54 1010.33 1011.40 1010.04 1009.53 1008.30 1007.26 1006.81 1006.75 1006.91 1006.91 1006.80 1006.44 1006.84 1006.50 1006.67 1006.41 1006.77 1007.45 1007.42 1007.44 1005.56 1006.39 1006.73
1024.36 1024.34 1024.20 1024.01 1023.79 1023.53 1023.26 1023.00 1022.68 1022.30 1021.94 1021.64 1021.38 1021.18 1020.94 1020.71 1020.56 1020.38 1019.76 1018.96 1018.68 1018.94 1016.62 1013.29 1010.98 1008.87 1008.54 1008.62 1008.81 1009.06 1009.41 1009.46 1009.54 1009.27 1008.76 1008.34 1007.93 1007.23 1006.96 1006.95 1007.15 1007.08 1007.24 1007.18 1007.75 1007.67 1007.76 1008.18 1008.17 1007.57 1008.11 1008.50 1007.83 1008.10
1023.95 1024.00 1023.85 1023.69 1023.47 1023.26 1022.94 1022.66 1022.36 1021.98 1021.61 1021.28 1020.98 1020.76 1020.49 1020.22 1020.03 1019.61 1018.34 1017.93 1018.04 1018.27 1017.09 1014.26 1010.97 1008.84 1008.20 1008.36 1008.74 1008.91 1009.07 1009.04 1009.26 1008.50 1008.30 1007.71 1007.86 1007.77 1007.67 1007.30 1007.28 1007.36 1007.28 1007.44 1007.90 1008.13 1008.20 1008.31 1008.29 1008.11 1008.02 1009.17 1009.42 1009.49
1023.65 1023.63 1023.56 1023.43 1023.21 1022.91 1022.64 1022.31 1021.99 1021.65 1021.28 1020.88 1020.50 1020.16 1019.83 1019.63 1019.52 1018.87 1018.48 1018.17 1018.10 1017.74 1017.35 1014.90 1011.47 1008.59 1007.99 1007.98 1008.36 1008.61 1008.35 1008.38 1008.21 1008.20 1007.70 1007.65 1007.64 1007.56 1007.67 1007.72 1007.02 1006.92 1007.27 1007.87 1008.10 1008.36 1008.71 1008.65 1008.70 1008.61 1008.60 1008.49 1008.46 1009.52
1023.31 1023.28 1023.26 1023.15 1022.96 1022.66 1022.34 1021.98 1021.60 1021.20 1020.82 1020.38 1019.96 1019.52 1019.18 1019.09 1019.21 1018.34 1017.13 1017.68 1018.11 1017.71 1017.18 1015.32 1011.91 1010.07 1008.81 1007.82 1007.82 1007.85 1008.09 1008.15 1007.89 1007.71 1007.49 1007.43 1007.20 1007.35 1007.56 1007.19 1006.80 1006.96 1007.25 1007.59 1007.87 1007.98 1008.18 1008.72 1008.90 1008.89 1008.66 1009.19 1009.78 1010.68
1022.92 1022.95 1022.91 1022.84 1022.66 1022.41 1022.06 1021.64 1021.16 1020.65 1020.18 1019.83 1019.46 1019.06 1018.80 1018.63 1017.78 1017.21 1017.30 1017.59 1017.71 1017.76 1016.64 1014.49 1012.27 1011.00 1009.28 1008.23 1008.12 1007.72 1007.58 1007.12 1006.70 1006.92 1006.92 1006.87 1006.66 1006.74 1007.08 1006.93 1006.72 1006.64 1006.93 1007.03 1007.24 1007.77 1008.26 1008.67 1009.00 1009.10 1009.35 1009.68 1010.44 1011.25
1022.47 1022.54 1022.54 1022.50 1022.38 1022.16 1021.82 1021.33 1020.73 1020.00 1019.18 1019.00 1018.99 1018.71 1017.94 1016.94 1017.05 1017.34 1017.66 1017.36 1017.31 1016.80 1016.15 1014.20 1012.16 1010.73 1009.75 1009.24 1009.00 1009.12 1008.35 1007.50 1006.49 1005.97 1005.74 1005.89 1006.04 1005.99 1006.05 1006.04 1006.08 1006.05 1006.25 1006.37 1006.80 1007.78 1008.25 1008.68 1008.63 1008.67 1009.63 1009.90 1010.43 1011.06
1021.99 1022.11 1022.17 1022.16 1022.09 1021.94 1021.67 1021.22 1020.60 1019.62 1017.50 1018.42 1018.33 1018.13 1017.19 1017.01 1016.83 1016.65 1016.54 1016.34 1015.56 1015.02 1014.21 1012.91 1012.00 1011.17 1010.42 1010.37 1010.09 1009.56 1009.32 1008.20 1007.08 1006.10 1005.86 1005.52 1005.49 1005.51 1005.29 1005.37 1005.12 1005.34 1005.58 1005.83 1005.95 1006.36 1006.96 1007.49 1007.79 1007.70 1008.19 1008.55 1009.69 1010.77
1021.49 1021.68 1021.79 1021.80 1021.79 1021.72 1021.53 1021.24 1020.89 1020.10 1019.70 1020.27 1020.18 1019.01 1017.50 1016.55 1016.31 1016.08 1015.22 1014.45 1013.89 1013.02 1012.53 1012.12 1011.85 1011.50 1011.08 1010.98 1010.78 1010.38 1009.86 1008.76 1007.31 1006.13 1005.67 1005.65 1005.43 1004.85 1004.91 1004.60 1004.46 1004.64 1004.85 1005.17 1005.21 1005.65 1005.95 1007.11 1007.56 1008.33 1008.67 1009.41 1009.53 1010.28
1020.98 1021.24 1021.42 1021.47 1021.51 1021.48 1021.33 1021.15 1020.97 1020.72 1020.15 1019.02 1019.10 1018.05 1016.70 1016.03 1015.69 1014.77 1013.85 1013.03 1012.72 1012.23 1012.19 1011.94 1011.86 1011.61 1011.49 1011.41 1011.36 1011.06 1010.09 1008.73 1007.63 1006.99 1006.21 1006.69 1006.67 1006.02 1005.83 1005.15 1004.46 1003.89 1004.25 1004.70 1005.07 1005.49 1006.20 1006.05 1007.25 1008.26 1008.12 1009.35 1009.70 1010.50
1020.55 1020.86 1021.08 1021.18 1021.24 1021.20 1021.04 1020.87 1020.77 1020.36 1019.93 1018.40 1017.52 1017.18 1016.26 1014.96 1014.11 1013.10 1013.17 1013.15 1012.80 1012.29 1011.97 1011.91 1011.67 1011.81 1011.70 1011.69 1011.31 1010.93 1009.83 1009.05 1008.37 1007.62 1007.56 1007.99 1007.81 1007.09 1006.70 1006.08 1005.44 1004.80 1003.97 1004.49 1004.98 1005.79 1005.86 1006.34 1006.99 1007.95 1008.74 1009.49 1010.07 1010.81
1020.25 1020.61 1020.80 1020.87 1020.89 1020.83 1020.69 1020.54 1020.51 1020.26 1019.05 1017.01 1015.81 1015.29 1014.31 1013.42 1012.94 1012.68 1012.54 1012.52 1012.25 1012.32 1012.00 1011.87 1011.86 1012.12 1011.95 1011.76 1011.38 1010.82 1010.11 1009.21 1009.29 1009.47 1009.17 1008.94 1008.45 1008.06 1007.42 1006.90 1006.19 1006.21 1004.92 1004.65 1004.62 1004.88 1005.70 1006.79 1007.65 1008.57 1009.38 1010.04 1010.75 1011.39
1020.13 1020.59 1020.27 1020.20 1020.32 1020.36 1020.34 1020.18 1019.82 1019.37 1017.82 1016.20 1015.32 1014.13 1012.91 1012.48 1012.32 1012.38 1012.35 1012.38 1012.28 1012.24 1012.11 1012.57 1013.02 1013.18 1012.63 1012.12 1011.40 1010.58 1009.97 1010.09 1010.36 1010.22 1009.72 1009.25 1008.79 1007.97 1007.71 1006.90 1006.77 1006.40 1007.23 1005.46 1005.83 1006.52 1007.50 1008.32 1009.28 1010.02 1010.74 1011.19 1011.79 1012.45
1020.11 1019.58 1019.30 1019.59 1020.12 1020.14 1020.22 1020.18 1018.62 1017.87 1016.70 1015.79 1014.40 1013.10 1012.49 1011.82 1012.27 1012.69 1012.85 1012.94 1012.72 1012.81 1013.14 1013.59 1014.02 1014.12 1013.89 1012.79 1011.33 1010.84 1010.94 1010.89 1010.55 1010.04 1009.60 1009.28 1008.79 1008.46 1008.03 1007.41 1007.10 1007.42 1008.12 1007.53 1007.77 1008.51 1009.07 1009.71 1010.39 1011.21 1011.94 1012.70 1013.11 1013.70
1019.33 1019.37 1019.67 1019.87 1020.04 1019.61 1019.26 1019.23 1017.68 1016.60 1016.01 1015.13 1014.07 1012.80 1012.35 1012.14 1012.62 1013.24 1013.57 1013.62 1013.64 1013.74 1013.88 1014.44 1014.74 1014.36 1013.79 1012.81 1011.94 1011.94 1011.57 1011.01 1010.51 1010.17 1009.77 1009.21 1008.66 1008.21 1007.87 1007.50 1008.53 1008.66 1008.98 1009.23 1009.61 1009.99 1010.51 1011.32 1012.20 1012.78 1013.02 1013.67 1014.18 1014.70
1019.11 1019.40 1019.78 1019.95 1019.97 1019.79 1018.11 1017.48 1016.91 1016.11 1015.03 1014.16 1013.39 1012.85 1012.65 1013.20 1013.88 1014.26 1014.36 1014.31 1014.34 1014.76 1015.02 1015.06 1014.85 1014.15 1013.60 1013.09 1012.90 1012.27 1011.71 1011.18 1010.64 1010.10 1009.75 1008.98 1008.32 1008.40 1008.93 1009.45 1009.82 1010.19 1010.56 1010.91 1011.31 1011.81 1012.34 1012.77 1013.09 1013.66 1014.15 1014.40 1014.92 1015.43
1019.40 1019.71 1019.95 1020.09 1020.15 1019.23 1017.80 1017.24 1016.76 1016.28 1015.17 1014.23 1014.01 1014.03 1014.22 1015.00 1015.21 1015.17 1015.11 1015.03 1015.10 1015.30 1015.37 1015.05 1014.51 1014.28 1014.12 1013.55 1013.03 1012.38 1011.56 1010.82 1010.36 1009.98 1009.73 1009.38 1009.42 1009.54 1010.02 1010.33 1010.88 1011.29 1011.68 1012.13 1012.53 1012.73 1013.12 1013.78 1014.31 1014.68 1015.00 1015.38 1015.87 1016.44
1019.87 1019.74 1020.05 1020.01 1019.28 1018.94 1017.73 1016.80 1016.03 1015.46 1015.10 1014.94 1015.50 1016.14 1016.29 1016.44 1016.28 1016.07 1015.80 1015.57 1015.36 1015.47 1015.35 1014.86 1014.57 1014.14 1013.68 1013.35 1012.74 1011.83 1010.88 1010.01 1009.68 1009.80 1010.13 1010.46 1010.95 1011.06 1011.29 1011.53 1011.88 1012.14 1012.54 1012.98 1013.43 1014.05 1014.31 1014.74 1015.26 1015.60 1015.84 1016.10 1016.42 1016.72
1019.31 1019.80 1019.44 1019.48 1018.86 1018.21 1017.99 1016.89 1016.41 1016.23 1016.34 1016.43 1017.35 1017.75 1017.49 1017.36 1017.07 1016.75 1016.73 1016.43 1016.33 1016.52 1015.91 1015.26 1014.50 1014.09 1013.66 1013.17 1012.34 1011.65 1011.01 1010.93 1011.02 1011.11 1011.52 1011.72 1012.08 1012.38 1012.70 1012.95 1013.09 1013.45 1013.75 1014.09 1014.40 1014.86 1015.34 1015.72 1016.03 1016.28 1016.49 1016.61 1016.78 1016.86
1019.69 1019.35 1018.91 1018.42 1018.48 1018.75 1018.23 1017.11 1017.22 1017.71 1017.91 1018.21 1018.38 1018.19 1017.99 1017.80 1017.74 1017.35 1017.80 1018.24 1017.58 1016.60 1015.82 1015.14 1014.55 1014.03 1013.59 1013.10 1012.44 1012.01 1011.73 1011.78 1012.11 1012.37 1012.69 1013.03 1013.33 1013.66 1013.86 1014.08 1014.21 1014.51 1014.97 1015.43 1015.51 1015.80 1016.19 1016.30 1016.42 1016.55 1016.70 1016.73 1016.82 1016.90
1019.52 1019.03 1018.43 1018.38 1018.53 1018.64 1018.19 1018.12 1018.57 1018.83 1019.02 1018.90 1018.68 1018.49 1018.42 1018.46 1018.89 1019.09 1019.18 1018.82 1017.94 1016.50 1015.63 1015.19 1014.62 1013.89 1013.53 1013.27 1013.22 1013.10 1012.98 1012.95 1013.28 1013.65 1013.97 1014.20 1014.56 1014.88 1015.08 1015.26 1015.43 1015.57 1015.74 1015.94 1016.14 1016.44 1016.61 1016.75 1016.76 1016.91 1016.94 1016.92 1017.04 1017.28
1019.67 1019.84 1019.45 1019.34 1019.05 1019.02 1019.08 1019.17 1019.24 1019.18 1018.92 1018.67 1018.37 1018.50 1018.86 1019.14 1019.52 1019.94 1020.09 1019.64 1018.40 1017.05 1016.10 1015.61 1014.74 1014.28 1014.11 1014.11 1014.07 1014.07 1014.14 1014.14 1014.37 1014.70 1015.18 1015.19 1015.47 1015.79 1016.06 1016.20 1016.38 1016.50 1016.44 1016.50 1016.85 1016.97 1017.15 1017.22 1017.26 1017.23 1017.38 1017.51 1017.63 1017.73
1019.93 1019.64 1019.68 1019.57 1019.74 1019.73 1019.61 1019.47 1019.25 1018.96 1018.47 1017.92 1017.92 1018.39 1019.13 1019.55 1020.22 1020.73 1020.67 1020.10 1018.79 1017.15 1016.29 1015.98 1015.71 1015.30 1014.98 1014.86 1014.82 1014.87 1015.14 1015.08 1015.06 1015.40 1015.92 1015.86 1015.87 1016.03 1016.45 1016.66 1016.99 1017.36 1017.28 1017.16 1017.25 1017.36 1017.39 1017.39 1017.55 1017.63 1017.77 1017.85 1017.87 1017.69
1020.27 1020.10 1019.95 1020.28 1020.09 1019.94 1019.75 1019.36 1019.01 1018.35 1017.32 1016.99 1017.56 1018.30 1019.03 1019.69 1020.48 1020.83 1020.22 1019.00 1017.55 1015.88 1015.37 1015.20 1014.99 1014.69 1015.08 1015.38 1015.54 1015.52 1015.54 1015.49 1015.59 1016.05 1016.24 1016.27 1016.30 1016.26 1016.32 1016.54 1016.88 1017.22 1017.38 1017.21 1017.27 1017.31 1017.38 1017.46 1017.57 1017.57 1017.62 1017.62 1017.72 1017.82
1020.65 1020.50 1020.18 1020.00 1019.80 1019.51 1018.92 1018.18 1017.42 1016.70 1016.10 1016.19 1017.01 1017.70 1018.18 1018.86 1019.75 1019.56 1017.97 1016.59 1016.11 1015.75 1015.25 1014.38 1014.10 1014.08 1014.36 1014.52 1014.77 1015.15 1015.49 1015.78 1016.14 1016.24 1016.20 1016.28 1016.30 1016.42 1016.66 1016.94 1017.23 1017.40 1017.53 1017.44 1017.55 1017.40 1017.38 1017.50 1017.58 1017.60 1017.66 1017.66 1017.73 1017.76
1020.25 1020.02 1019.92 1019.22 1018.56 1018.20 1017.50 1017.01 1016.88 1016.35 1015.64 1015.67 1016.07 1016.49 1017.10 1017.34 1017.50 1017.23 1016.25 1015.51 1014.75 1014.21 1014.52 1014.39 1014.39 1014.38 1014.37 1014.30 1014.54 1014.83 1014.99 1015.32 1015.67 1015.94 1016.10 1016.31 1016.50 1016.78 1016.85 1017.06 1017.27 1017.48 1017.70 1017.85 1017.90 1017.89 1017.83 1017.83 1017.83 1017.85 1017.85 1017.80 1017.76 1017.81
1018.73 1018.79 1018.28 1017.92 1017.55 1017.39 1016.84 1016.53 1016.25 1015.77 1015.73 1015.72 1015.81 1016.11 1016.33 1016.42 1016.28 1015.99 1015.76 1015.17 1014.63 1014.28 1014.30 1014.46 1014.71 1014.96 1015.18 1015.33 1015.43 1015.49 1015.54 1015.62 1015.81 1016.05 1016.28 1016.47 1016.62 1016.77 1016.91 1017.09 1017.25 1017.42 1017.65 1017.84 1017.92 1018.03 1018.02 1017.95 1018.00 1018.02 1017.94 1017.75 1017.61 1017.79
1017.68 1016.96 1017.04 1017.07 1016.87 1016.50 1016.08 1015.95 1015.85 1015.67 1015.60 1015.58 1015.68 1015.75 1015.60 1015.25 1014.98 1014.96 1014.79 1014.65 1014.67 1014.81 1014.92 1015.05 1015.18 1015.46 1015.81 1016.01 1016.23 1016.44 1016.66 1016.87 1016.96 1016.92 1016.89 1017.02 1017.18 1017.30 1017.32 1017.38 1017.48 1017.52 1017.52 1017.49 1017.44 1017.45 1017.60 1017.72 1017.79 1017.95 1018.03 1018.21 1018.35 1018.68
1017.08 1016.84 1016.71 1016.69 1016.69 1016.45 1016.18 1016.23 1016.13 1016.00 1016.04 1016.05 1016.28 1016.17 1016.03 1015.87 1015.61 1015.54 1015.31 1015.23 1015.28 1015.42 1015.64 1015.61 1015.86 1016.10 1016.32 1016.69 1017.02 1017.28 1017.37 1017.58 1017.95 1018.16 1018.12 1018.19 1018.25 1018.22 1017.85 1017.81 1017.85 1017.82 1017.71 1017.63 1017.60 1017.99 1018.19 1018.57 1018.77 1018.95 1019.17 1019.37 1019.59 1019.96
1016.44 1016.47 1016.57 1016.63 1016.63 1016.26 1016.19 1016.22 1016.35 1016.29 1016.26 1016.30 1016.30 1016.34 1016.47 1016.63 1016.57 1016.32 1016.02 1015.96 1016.00 1016.00 1016.28 1016.38 1016.32 1016.42 1016.52 1016.69 1016.95 1017.34 1017.77 1018.24 1018.81 1018.91 1018.91 1018.86 1019.04 1019.22 1018.72 1018.73 1018.82 1018.63 1018.47 1018.31 1018.23 1018.46 1018.79 1019.13 1019.51 1019.90 1020.25 1020.51 1020.75 1020.99
Wind_Speed
7 8 8 10 10 11 12 13 13 12 13 13 13 14 14 14 14 9 5 2 3 5 11 8 8 6 7 4 3 8 8 8 4 2 3 3 4 6 6 6 8 9 6 5 2 5 9 12 6 2 7 8 10 10
9 11 7 9 11 10 12 13 13 13 13 13 14 13 13 13 13 11 4 7 6 4 8 12 16 20 15 12 1 2 3 4 4 4 6 3 3 5 2 1 9 5 3 3 2 1 4 8 7 8 12 15 8 12
10 8 9 9 9 10 11 13 13 13 14 14 14 14 13 12 11 7 6 7 4 6 8 7 11 15 16 16 11 3 1 3 5 4 5 4 4 4 4 3 2 5 7 2 3 5 5 7 8 14 8 10 13 10
8 9 9 10 9 10 12 13 13 14 15 15 15 15 13 12 10 8 6 6 1 5 5 5 7 5 6 11 9 9 4 6 17 3 2 3 2 1 2 2 1 3 2 4 2 5 4 8 13 13 15 7 9 8
9 8 10 9 10 11 12 13 14 15 15 16 15 15 15 14 13 8 7 7 3 3 5 9 16 11 11 8 7 6 5 5 4 4 4 3 5 4 3 1 2 0 1 3 3 6 2 3 6 15 15 13 8 9
10 8 8 9 10 12 12 13 15 16 17 17 16 16 15 14 10 6 2 5 6 5 4 6 7 8 5 5 5 6 5 5 4 2 3 2 6 2 2 1 5 6 6 4 2 5 7 6 7 11 11 3 5 8
7 9 8 9 10 11 12 14 16 17 18 18 16 15 13 9 4 3 2 2 6 3 2 6 6 3 7 5 5 4 6 3 3 4 4 3 3 3 2 2 2 5 10 7 5 1 6 6 3 4 6 6 12 9
9 9 8 9 10 11 13 15 17 18 19 19 17 15 10 5 6 6 4 8 3 2 2 4 5 6 7 3 2 4 5 6 4 3 3 4 2 3 3 7 5 5 5 8 8 6 3 3 1 6 7 9 9 7
10 9 9 9 10 11 13 16 19 19 20 18 18 10 3 4 2 1 10 5 3 2 3 3 3 1 6 3 1 4 3 3 5 6 6 3 4 5 7 8 5 4 2 7 8 6 3 4 5 4 6 9 9 6
11 10 10 9 10 11 13 16 20 22 24 14 3 3 2 2 13 9 1 3 3 4 5 4 5 6 6 5 2 3 3 4 3 4 4 8 8 9 9 10 7 7 7 6 5 7 7 3 7 9 4 5 9 5
12 11 10 9 9 10 12 16 19 24 15 3 2 1 2 7 4 3 3 3 4 4 5 4 5 5 5 5 3 1 3 4 3 4 3 3 7 7 11 9 10 8 9 8 7 4 16 15 11 11 8 11 11 7
12 11 10 9 8 9 11 13 15 9 5 7 6 7 5 3 3 4 4 3 5 2 1 2 3 2 2 2 2 3 3 3 5 4 2 3 4 6 4 9 10 11 11 8 3 5 7 20 11 7 10 12 11 8
14 12 11 10 8 9 11 12 13 13 13 4 4 3 2 2 1 4 3 3 1 1 1 2 2 2 1 2 3 2 4 5 6 3 3 4 9 10 11 15 9 11 13 10 4 6 9 19 18 18 11 9 8 12
14 12 11 10 9 10 12 12 12 9 4 4 3 2 4 4 5 2 3 2 3 5 1 2 3 2 2 2 2 4 4 4 4 3 5 6 10 11 12 13 13 11 10 11 15 21 14 13 13 12 11 10 11 12
14 12 10 11 12 12 13 13 12 5 4 4 4 3 7 8 2 2 3 3 1 3 5 4 3 2 2 3 3 3 4 4 6 4 4 7 8 10 11 12 9 14 5 1 6 9 13 11 12 12 8 8 11 14
13 7 10 14 12 9 8 10 5 3 5 3 3 6 6 4 2 2 3 3 3 3 3 3 4 3 3 4 4 6 4 3 1 4 5 6 8 10 8 11 3 6 13 10 13 15 14 14 13 12 11 10 10 11
15 3 3 11 11 9 7 3 4 6 4 4 5 7 10 2 6 3 1 3 5 4 2 2 1 2 4 4 4 4 4 5 7 8 6 8 9 11 8 6 7 9 8 11 13 13 13 13 14 14 14 11 13 12
5 7 6 4 2 6 3 6 5 4 5 5 6 6 3 5 6 6 3 3 3 2 1 0 1 3 4 4 3 3 7 9 8 8 9 10 11 10 6 9 8 9 10 12 11 11 13 13 12 10 14 13 13 12
2 7 7 3 2 3 4 4 3 4 4 6 5 4 4 6 8 6 6 5 4 3 1 1 3 3 3 2 6 9 10 9 9 10 9 12 3 8 10 11 11 10 11 12 12 9 9 11 10 8 7 8 8 8
12 8 5 1 3 4 2 2 1 4 4 4 6 7 6 4 6 5 3 2 0 1 2 2 3 3 4 7 7 8 10 10 8 7 5 6 8 10 10 10 9 11 11 13 11 12 11 10 8 7 7 8 8 7
4 5 4 4 4 5 4 3 4 3 5 4 7 6 4 4 3 3 3 3 1 2 3 3 5 7 6 6 7 8 10 6 4 6 7 9 8 9 9 9 11 9 10 9 10 8 9 8 6 6 6 5 4 2
3 8 2 6 4 2 3 4 3 3 4 5 4 4 2 3 3 3 4 4 3 3 4 6 5 3 5 6 8 6 4 10 12 11 11 11 10 9 9 8 9 9 9 9 10 9 7 5 4 3 2 3 3 4
4 3 4 1 2 2 6 3 3 4 4 3 3 3 1 2 3 5 4 3 3 4 6 3 6 6 6 6 5 11 9 11 10 10 10 9 9 9 9 9 8 9 9 7 7 8 7 5 5 4 4 5 1 3
2 4 3 2 4 2 3 3 3 2 2 1 2 2 3 4 4 4 3 4 5 8 6 8 6 4 4 7 8 7 8 9 10 9 9 10 9 8 8 7 7 7 7 6 7 6 5 6 8 5 5 6 7 6
1 4 1 3 1 1 2 3 1 1 2 2 0 2 3 4 4 4 5 6 7 6 6 7 9 8 7 7 7 8 9 8 8 9 7 8 8 7 8 7 7 6 3 7 6 5 4 5 5 6 8 8 7 6
1 0 1 1 1 1 2 2 1 1 2 0 3 4 3 3 4 4 5 4 6 4 3 3 3 7 9 7 7 7 7 5 8 8 5 5 7 8 6 6 5 4 4 4 4 4 3 5 5 6 5 5 4 4
1 2 3 3 2 1 1 3 3 3 3 3 3 3 3 4 4 2 4 6 6 5 2 3 3 8 7 4 2 2 2 5 8 7 5 5 4 3 3 5 6 4 4 0 4 3 5 4 3 3 3 3 5 4
1 0 1 1 1 2 2 3 2 4 4 4 4 3 3 4 3 5 7 5 8 8 8 5 6 6 7 7 8 7 7 6 6 5 4 4 3 6 7 7 8 12 7 4 1 1 2 3 3 3 2 3 4 4
1 3 2 2 2 3 3 5 4 4 5 6 6 5 3 3 7 6 7 9 9 7 5 7 6 7 7 6 5 6 6 6 7 9 9 7 6 5 5 4 4 5 5 5 8 6 6 4 2 2 3 2 3 4
1 6 2 5 4 4 4 6 7 3 6 7 6 7 5 5 7 7 7 6 4 9 8 8 8 8 9 9 9 10 9 8 7 7 7 7 7 6 5 4 4 5 5 5 4 3 1 3 2 2 4 5 0 2
4 7 13 10 10 8 8 8 7 6 7 6 7 6 4 1 3 3 3 7 6 7 7 8 9 10 10 9 8 8 8 8 10 10 7 6 6 4 4 4 4 3 2 2 4 5 4 1 5 5 9 11 12 11
2 8 6 7 5 4 7 7 6 6 7 9 8 6 8 7 10 8 6 5 6 7 9 9 8 8 9 8 7 6 8 6 6 6 10 8 7 7 7 7 7 6 7 8 8 11 12 11 10 10 10 12 13 14
7 7 9 6 3 3 4 4 4 6 7 7 6 7 8 6 5 2 3 7 7 7 7 7 6 5 6 7 7 7 8 7 7 7 8 8 7 9 7 7 7 7 9 8 8 9 10 12 11 12 12 11 11 12
Wind_Direction
309 307 313 329 331 337 335 328 330 341 343 341 340 341 346 350 355 350 296 71 330 297 290 273 320 323 328 341 351 330 312 6 308 219 195 252 267 251 244 245 239 191 207 220 221 193 258 350 360 92 135 85 101 120
339 325 303 318 319 325 332 330 331 330 334 336 336 337 339 345 347 348 292 13 358 264 268 316 279 257 242 253 266 360 190 326 314 324 0 317 301 1 10 292 344 58 79 341 80 123 348 345 49 36 114 119 114 112
313 316 317 318 325 325 326 324 327 330 328 329 327 329 333 330 330 335 302 285 296 254 269 221 236 254 212 228 227 263 105 256 342 247 295 308 47 10 7 27 53 329 15 23 345 25 49 0 20 20 18 119 129 131
292 310 311 310 316 319 322 325 326 325 326 325 323 323 321 319 316 309 287 302 296 279 279 325 345 211 219 199 216 217 189 144 243 236 263 306 312 184 2 162 55 351 13 345 320 25 80 24 28 26 61 349 82 99
278 297 302 306 308 314 320 323 323 320 320 321 319 315 313 308 304 287 259 252 186 270 312 298 309 270 247 176 208 236 239 217 250 236 290 278 332 358 348 2 107 236 349 18 34 331 96 28 63 60 41 12 51 78
266 278 287 298 306 309 315 317 319 321 320 320 317 317 311 303 299 275 213 182 195 210 309 297 341 285 172 191 217 235 236 203 226 238 251 257 159 135 281 313 81 84 74 80 94 37 61 110 132 123 94 156 78 63
256 274 282 290 305 313 316 319 319 319 318 317 314 312 308 291 252 271 349 31 334 326 264 297 280 309 240 173 194 205 237 239 216 247 241 218 185 166 170 226 261 166 142 137 134 137 130 195 153 177 150 118 113 108
264 268 275 285 301 311 316 317 317 316 316 316 314 312 305 242 253 267 226 203 264 255 256 276 274 324 333 270 263 177 183 192 223 239 256 241 192 151 229 223 229 136 111 151 177 192 163 86 286 185 129 112 102 110
253 261 269 282 298 309 315 318 318 316 313 311 308 300 262 222 247 36 130 145 218 292 300 269 298 264 270 330 319 354 324 225 199 190 220 230 212 197 183 247 253 268 235 249 142 167 212 125 109 110 150 138 126 146
241 249 260 273 291 306 316 320 322 318 309 310 265 207 247 209 118 135 142 189 199 202 224 261 267 293 339 351 40 352 305 272 287 245 212 215 236 234 188 208 223 198 228 230 188 182 134 152 152 131 147 126 122 136
233 243 252 265 282 302 315 323 330 326 308 154 264 83 341 165 209 221 230 227 200 221 210 236 273 327 342 341 332 299 305 296 270 248 248 247 236 220 228 225 207 188 196 221 228 256 178 172 176 173 167 142 139 153
225 235 244 257 274 295 311 322 332 335 4 315 292 279 254 215 243 256 232 214 223 254 177 245 244 252 315 353 318 317 274 292 269 287 260 255 280 228 261 227 208 196 183 198 226 308 188 178 169 183 172 146 147 141
218 226 239 251 266 288 304 312 320 312 305 260 208 242 277 206 342 240 230 223 188 301 52 9 320 274 347 209 258 265 257 243 328 266 262 52 346 356 349 353 329 201 184 178 162 308 278 150 165 165 135 147 128 122
210 220 234 250 263 283 293 301 314 322 278 245 189 289 221 215 241 288 22 210 296 331 115 339 312 192 238 248 240 249 259 306 268 245 46 9 342 344 341 343 351 337 199 180 171 204 227 136 132 130 129 138 121 123
201 216 234 251 257 270 281 291 306 297 269 258 226 222 218 242 325 355 33 314 121 292 340 336 319 13 258 262 219 298 256 232 20 28 293 325 334 338 336 331 357 353 354 145 201 150 110 121 114 117 119 121 123 118
188 217 235 240 247 263 283 296 258 226 255 273 271 272 258 209 173 72 25 8 339 329 296 42 32 350 295 314 272 224 251 65 267 264 282 315 318 311 323 326 27 30 328 62 62 92 96 100 107 101 93 97 104 117
173 252 80 196 225 261 266 271 231 217 276 250 252 272 252 326 64 51 48 353 349 338 33 36 337 262 315 254 253 23 25 320 320 315 313 313 308 311 302 297 77 105 147 83 80 88 96 100 100 98 96 89 87 91
206 154 143 158 212 243 225 204 259 205 241 247 261 291 341 30 58 40 26 15 359 355 4 75 344 229 237 257 312 357 310 308 310 314 311 308 306 306 92 97 92 84 78 85 92 96 99 100 104 105 104 104 97 94
220 146 162 174 336 299 234 208 261 285 252 277 281 313 342 78 50 16 350 351 42 43 353 208 249 236 271 348 316 306 305 303 299 300 300 298 294 102 99 89 85 90 101 106 105 95 96 98 97 96 97 98 98 101
106 126 153 175 286 275 270 268 206 265 277 313 7 16 30 29 345 353 314 323 254 175 191 228 256 360 300 296 294 291 287 284 278 284 298 56 57 75 86 96 95 99 93 92 91 92 94 90 86 88 96 108 117 121
210 137 169 235 217 237 314 301 234 314 343 356 38 22 3 340 338 326 323 330 245 22 330 339 299 294 299 297 289 283 280 287 54 79 90 85 74 79 77 76 84 83 89 91 94 91 86 91 93 96 104 97 91 138
93 168 238 195 265 197 264 265 287 8 322 21 33 348 337 328 322 352 326 357 26 350 293 301 310 317 310 310 312 307 25 75 82 83 77 84 85 81 81 86 90 86 78 71 77 78 71 68 86 107 143 229 224 140
160 213 235 171 241 62 261 327 19 31 353 12 332 318 328 330 9 343 56 346 289 293 309 298 310 302 294 306 20 41 53 83 86 84 79 75 70 71 75 76 79 82 78 67 80 83 78 64 72 110 92 90 160 100
114 297 332 271 150 289 8 17 50 19 14 318 290 25 10 25 22 40 6 303 298 323 347 356 343 342 39 42 45 46 60 75 75 70 73 82 74 63 65 70 72 72 91 93 81 76 68 65 67 63 58 67 77 77
14 324 294 319 283 358 352 7 349 333 286 252 136 77 48 32 34 31 358 316 324 328 330 349 16 35 53 57 56 57 51 71 82 83 79 91 91 84 71 64 58 40 35 99 89 80 65 60 55 64 65 58 52 47
57 172 46 75 299 45 344 304 308 293 279 134 71 81 62 40 40 19 325 295 288 270 297 335 8 48 41 36 63 65 67 79 91 81 63 84 100 106 106 98 86 46 17 69 91 89 92 87 84 82 92 106 63 19
341 32 42 45 349 83 263 246 244 262 260 91 78 83 72 60 47 336 271 252 247 257 267 267 256 116 134 141 100 67 52 85 95 113 130 116 120 126 118 102 104 132 184 230 129 106 89 109 107 94 63 93 129 116
31 268 265 298 225 207 267 256 271 5 32 105 94 88 105 133 152 226 230 254 246 270 286 308 62 104 126 124 131 136 131 128 141 157 148 125 92 82 81 79 87 84 64 39 100 75 132 102 86 65 83 40 63 47
248 183 218 273 231 199 349 26 41 359 48 91 112 105 106 116 181 226 258 252 259 211 166 102 82 65 63 71 95 109 112 114 114 113 110 109 115 118 129 127 118 102 94 84 52 65 56 53 34 25 1 319 24 19
127 176 234 51 49 45 74 112 128 141 80 72 86 108 125 166 203 219 242 270 307 50 73 95 96 85 74 64 59 56 49 50 62 73 80 82 84 90 94 100 112 125 132 130 136 154 302 257 225 257 260 255 157 31
298 104 108 114 112 118 114 124 132 122 113 103 87 79 76 106 137 150 74 50 73 96 90 80 66 63 62 58 81 87 81 56 38 38 67 79 79 79 109 122 112 113 130 163 195 218 199 282 38 48 40 45 48 66
140 114 111 110 99 88 114 129 114 103 94 87 77 94 89 67 57 36 39 86 79 67 57 64 68 95 100 103 92 78 64 70 74 56 47 44 37 11 23 52 40 36 29 20 37 65 59 61 56 58 64 59 54 52
97 97 93 77 74 130 116 90 106 110 109 120 122 94 90 77 56 40 76 54 43 64 71 55 61 72 90 126 132 128 115 94 86 87 98 93 70 28 32 25 13 9 13 9 31 46 58 63 68 67 60 54 50 44